Regional Weather Roundup
Issued by NWS

Home | Current Version | Previous Version | Graphics & Text | Print | Product List | Glossary On
Versions: 1 2 3 4 5 6 7 8 9 10 11 12 13 14 15 16 17 18 19 20 21 22 23 24 25 26 27 28 29 30 31 32 33 34 35 36 37 38 39 40 41 42 43 44 45 46 47 48 49 50
000
ASUS43 KLMK 260710
RWRKY
KENTUCKY REGIONAL WEATHER ROUNDUP
NATIONAL WEATHER SERVICE LOUISVILLE KY
300 AM EDT FRI AUG 26 2016

NOTE "FAIR" INDICATES FEW OR NO CLOUDS BELOW 12,000 FEET
WITH NO SIGNIFICANT WEATHER AND/OR OBSTRUCTIONS TO VISIBILITY.

KYZ001>023-026-027-061>063-070>075-260800-
WESTERN AND SOUTH CENTRAL KENTUCKY

CITY           SKY/WX    TMP DP  RH WIND       PRES   REMARKS
PADUCAH        FAIR      74  72  93 CALM      30.07F
HENDERSON      FAIR      72  66  83 SW3       30.08S
OWENSBORO      FAIR      77  75  93 CALM      30.09F
HOPKINSVILLE   FAIR      76  75  94 E3        30.09F
BOWLING GREEN  FAIR      77  73  87 CALM      30.10F
GLASGOW        FAIR      73  73 100 CALM      30.11F FOG
$$

KYZ024-025-028>034-038-045-046-053-260800-
NORTH CENTRAL KENTUCKY

CITY           SKY/WX    TMP DP  RH WIND       PRES   REMARKS
LOUISVILLE/SDF FAIR      77  71  82 E3        30.09S
LOUISVILLE/LOU FAIR      75  70  84 CALM      30.10S
FORT KNOX      FAIR      71  70  94 SE3       30.09S
$$

KYZ035>037-039>044-047>052-055>060-089>105-260800-
NORTHEAST KENTUCKY

CITY           SKY/WX    TMP DP  RH WIND       PRES   REMARKS
LEXINGTON      FAIR      75  71  87 CALM      30.13S
COVINGTON      FAIR      75  71  87 SW3       30.11R
FRANKFORT      FAIR      72  68  87 CALM      30.11S
$$

KYZ054-064>069-076>088-106>120-260800-
SOUTHEAST KENTUCKY

CITY           SKY/WX    TMP DP  RH WIND       PRES   REMARKS
JACKSON        FAIR      74  71  91 CALM      30.15R
LONDON         FAIR      72  69  90 S3        30.15S
SOMERSET       FAIR      70  70 100 CALM      30.15S
MIDDLESBORO    FOG       71  71 100 CALM      30.17S VSB 1/2
MONTICELLO     FAIR     N/A N/A N/A CALM      30.15F HAZE
$$





USA.gov is the U.S. government's official web portal to all federal, state and local government web resources and services.